CZ-6A DEB

Satellite information

Favourite Embed

Satellite Type and Status

DEBRISIN ORBIT

Key statistics

Satellite CZ-6A DEB at a glance.

Uptime

910

Days in orbit

Revolutions

≈ 14.2

Per day

Orbit

SSO

Sun Synchronous Orbit

Inclination

98.8

Latest

Satellite identification and parameters

Extended collection of information and parameters for CZ-6A DEB.

Object identification

Identified? True

Debris? True

Object name: CZ-6A DEB

International designator: 2022-151Q

Object number (NORAD): 54273

Object ID (CCSDS): 54273

Country: PEOPLES REPUBLIC OF CHINA (PRC)

Current information (Y/N): Y

RCS size: SMALL

Orbital parameters

Period: 101.319 minutes

Inclination: 98.8018 deg

SMA: 7199.259 km

Apoapsis: 839.338 km

Periapsis: 802.911 km

RAAN: 139.2477 deg

Eccentricy: 0.0025299

Argument of periapsis: 359.5873 deg

Mean anomaly: 0.5279 deg

Mean motion: 14.21251884 rev/day

Mean motion (dot): 0.00003287 rev/day2

B* drag term: 0.0015241 1/REarth

Two-line elements (TLE)

Creation date: May 9, 2025, 2:46 a.m.

Reference frame: TEME

Reference center: EARTH

Epoch: May 8, 2025, 2:20 p.m. UTC

TLE line 0: 0 CZ-6A DEB

TLE line 1: 1 54273U 22151Q 25128.59756540 .00003287 00000-0 15241-2 0 9996

TLE line 2: 2 54273 98.8018 139.2477 0025299 359.5873 0.5279 14.21251884128018

Live tracking on map

Real-time ground track for satellite CZ-6A DEB.

In-orbit conjunctions

A list of the most updated potential collisions computed for object CZ-6A DEB.

Target Orbit TCA Probability of collision Miss distance Type
COSMOS 1275 DEB LEO 2025-03-06 04:02:02 0.0004230075 60.0 (m) DEBRIS
METEOR 1-17 DEB LEO 2024-11-14 17:13:23 0.0001004254 732.0 (m) DEBRIS
FENGYUN 1C DEB SSO 2024-09-25 15:30:00 0.0005006523 249.0 (m) DEBRIS
FENGYUN 1C DEB SSO 2024-09-19 20:25:25 0.0001255694 353.0 (m) DEBRIS
SL-3 R/B LEO 2024-09-08 18:31:54 0.0001245981 831.0 (m) ROCKET BODY

Associated space launch

Chinese satellite reported for atmospheric/ocean/environmental/spatial parameter research purposes, details TBD.

CZ-6A DEB was lifted into orbit during the mission ‘Long March 6A | Yunhai 3’, on board a Long March 6A space rocket.

The launch took place on Nov. 11, 2022, 10:52 p.m. from Launch Complex 9A.

For more information about the launch, click the button.

Launch to space Long March 6A | Yunhai 3
Long March 6A | Yunhai 3

Agency: N/A

Status: Launch Successful

Launch date: Nov. 11, 2022, 10:52 p.m. UTC

Rocket: Long March 6A

Launch pad: Launch Complex 9A

Location: Taiyuan Satellite Launch Center, People's Republic of China

...

Latest news about this satellite

There are no fresh news available about this satellite. Check back as we update our databases every day.


Newsletter sign-up

Weekly statistics, charts and insights to help you stay on top of the space industry.